Temp
50 50 50 49 49 48 47 47 47 47 46 46 46 46 47 48 48 49 49 50 51 51 50 50 49 48 48 48 48 48 48 48 48 48 48 46 45 45 44 44 44 45 45 45 45 45 45 45 47 47 47 46 46 45 45 44 44 45 45 46 46 46 46 46 47 47 46 45 45
49 50 50 49 48 48 47 47 46 46 46 45 46 46 47 48 48 48 49 50 50 50 49 49 48 48 47 47 48 48 48 48 47 47 46 45 44 43 43 43 43 44 44 44 45 45 46 45 47 47 47 46 46 46 45 44 44 45 46 46 46 45 45 46 47 46 45 45 44
49 49 49 48 48 47 46 46 45 45 45 45 45 46 46 48 49 49 49 49 49 49 49 49 48 48 47 46 46 46 47 47 47 46 46 45 43 43 42 43 43 43 44 44 44 44 44 45 46 47 47 46 46 47 46 44 43 45 46 47 46 45 45 46 46 46 45 44 44
49 49 48 48 47 47 46 46 45 45 45 45 45 46 47 48 49 48 48 48 49 49 49 48 48 47 47 46 45 45 46 47 46 46 45 44 43 42 42 43 44 44 43 43 43 43 43 43 45 46 46 46 47 47 47 44 44 44 46 46 45 45 45 46 46 45 44 45 44
49 48 48 48 47 47 46 46 45 45 45 45 45 47 48 48 48 48 49 49 49 48 48 47 47 47 46 46 45 45 45 46 46 45 44 44 43 42 43 44 44 44 43 43 42 42 42 42 44 44 45 45 45 46 45 44 44 44 44 44 44 44 45 45 45 45 44 45 44
48 48 47 47 47 46 46 45 45 45 46 47 47 48 48 49 49 49 50 49 48 47 46 47 47 47 46 44 44 44 43 43 43 43 44 44 44 44 44 44 43 43 42 42 41 40 41 42 44 44 44 44 44 43 42 40 43 44 45 45 44 44 44 44 44 44 44 45 45
47 47 46 46 46 46 46 46 46 47 48 49 49 49 49 50 50 50 49 48 48 47 48 48 47 46 45 44 44 44 44 43 42 42 43 45 44 44 44 43 42 42 41 41 41 41 41 42 44 45 45 45 44 42 40 40 42 44 46 47 45 44 43 44 43 43 43 44 44
47 46 46 46 47 47 47 47 48 48 49 49 49 49 50 50 49 49 48 48 48 48 47 46 44 44 44 45 45 45 44 44 44 43 43 43 43 43 42 42 42 41 41 40 41 41 41 42 43 44 45 45 44 43 41 39 41 43 45 47 45 44 43 43 42 42 43 43 43
47 47 47 47 48 48 48 49 49 49 49 49 49 49 48 48 48 47 47 47 47 46 44 43 42 42 43 44 44 44 44 44 44 44 43 43 43 43 42 42 42 42 41 40 40 40 40 41 43 43 43 43 44 43 41 39 41 43 44 45 45 44 43 42 41 41 41 42 42
47 47 48 48 48 48 49 49 49 49 49 48 48 48 48 48 47 46 46 45 44 42 41 41 41 42 43 43 43 43 42 43 43 43 43 43 43 42 42 42 42 42 42 41 40 40 40 42 43 42 42 42 43 42 41 39 41 42 43 44 44 44 43 43 41 41 41 42 42
48 48 48 48 48 48 49 48 48 48 48 47 46 46 46 47 45 44 44 43 42 41 40 39 40 42 43 43 42 42 41 41 42 42 43 42 42 41 41 41 41 41 42 41 40 40 41 42 43 42 42 42 41 41 40 39 40 41 42 43 42 42 43 44 43 42 42 42 42
48 48 48 47 48 48 48 48 48 47 47 46 45 45 44 44 43 43 43 42 42 41 40 38 40 42 43 43 42 41 40 40 40 41 42 41 40 40 40 40 40 40 40 40 39 40 41 42 43 43 43 42 42 41 40 39 40 41 42 42 42 42 43 45 44 44 43 42 42
47 47 47 47 47 48 48 47 47 46 46 45 44 43 43 42 42 42 43 43 43 42 40 39 39 40 42 42 41 40 40 40 40 41 42 41 40 40 40 40 40 40 40 40 39 40 41 41 42 42 43 44 43 42 41 40 40 41 42 43 43 43 44 45 45 44 43 42 42
47 47 47 47 47 48 47 47 46 46 45 44 43 43 42 41 41 42 43 44 43 41 40 40 40 40 40 40 40 40 40 39 39 40 41 41 40 40 40 41 40 40 40 40 39 39 40 41 41 42 42 43 44 43 41 40 40 41 42 43 44 44 45 46 45 44 43 42 43
46 47 47 47 47 47 47 47 46 46 45 44 43 42 41 40 41 42 42 42 41 41 40 40 41 40 39 39 39 39 39 39 39 40 41 41 40 40 40 41 40 40 40 40 39 39 39 40 41 41 42 43 43 43 41 40 41 41 42 43 43 44 45 45 45 44 43 43 43
47 47 47 48 48 47 47 46 46 46 45 43 42 41 40 40 40 41 41 41 41 41 41 41 41 40 39 39 38 38 38 39 40 41 42 43 42 41 41 41 41 41 40 40 40 39 39 39 40 40 41 42 42 42 42 41 41 42 42 43 43 44 44 44 44 44 43 43 43
47 47 47 48 47 47 46 46 46 45 44 43 41 40 40 40 40 41 42 42 42 42 42 41 41 40 40 40 39 39 39 40 40 41 43 43 43 42 41 41 41 41 40 40 40 41 41 40 39 39 39 40 41 42 42 42 42 42 43 43 43 43 43 44 44 44 43 43 43
47 47 47 47 46 46 45 45 45 44 44 42 41 40 39 39 40 41 42 42 42 43 42 41 40 40 40 41 40 40 41 41 41 42 42 42 41 41 41 41 41 40 39 39 40 41 42 41 40 39 39 39 40 41 42 42 42 43 43 43 43 43 43 43 44 44 43 43 43
46 46 46 46 45 45 45 46 45 43 42 41 40 39 39 39 40 40 41 41 42 42 43 42 40 39 39 40 40 40 41 41 41 40 40 39 39 39 39 39 39 39 39 39 40 40 41 41 40 40 40 40 41 41 42 42 43 43 43 43 43 43 43 43 43 43 43 43 44
46 46 46 45 45 45 45 45 44 42 41 40 39 39 39 38 40 41 41 41 40 40 41 42 41 41 40 39 39 39 40 40 39 39 39 39 39 39 39 39 39 39 38 39 39 40 40 41 41 41 41 41 42 43 43 44 44 44 44 43 43 42 42 43 43 43 43 43 44
45 45 44 44 44 44 43 42 41 40 39 39 39 39 39 39 40 40 41 40 39 39 40 41 42 42 41 40 40 40 40 40 39 39 39 39 39 39 39 39 39 39 39 39 39 40 40 41 41 41 42 42 43 44 45 45 45 45 44 43 43 43 43 43 43 43 43 44 44
43 42 41 41 41 41 40 39 38 38 38 39 39 39 39 39 39 39 38 38 38 38 39 40 41 41 41 40 40 40 39 39 38 38 38 38 39 39 39 39 38 39 39 40 40 41 41 41 41 42 43 44 45 45 46 46 46 46 46 45 44 44 44 44 43 43 44 44 44
40 39 39 38 39 40 39 38 38 38 38 38 38 38 39 39 38 37 36 37 38 39 39 39 39 39 38 38 38 38 38 38 38 38 38 38 38 38 38 37 38 39 40 41 42 42 41 42 42 43 44 45 46 47 47 47 47 47 47 46 45 45 44 43 43 43 43 43 43
38 38 38 38 38 38 38 38 38 39 39 39 38 39 39 38 37 37 37 38 38 38 38 38 38 37 36 36 36 36 37 38 39 39 39 38 38 38 38 38 39 40 41 41 42 43 44 45 47 47 48 48 48 48 48 48 48 48 47 46 45 44 44 43 43 43 43 43 43
37 37 38 37 37 37 38 39 39 39 39 38 38 38 39 39 39 39 39 39 38 38 37 37 37 36 36 36 36 36 36 37 39 40 40 40 40 39 39 40 41 41 42 42 45 47 49 51 51 51 51 51 50 50 50 50 48 48 47 46 45 44 44 44 44 44 44 44 43
36 37 37 37 37 38 39 39 39 39 38 37 38 38 39 39 39 40 40 40 39 37 37 37 37 38 38 38 37 36 37 37 38 39 39 40 40 41 41 42 42 42 42 44 47 49 51 52 52 52 52 52 52 51 50 48 46 46 46 45 44 44 44 45 45 44 44 43 43
37 37 37 37 38 39 39 38 38 38 38 38 38 38 38 38 39 40 40 40 39 37 36 37 38 39 39 39 38 38 38 39 38 37 38 39 39 40 41 42 42 42 43 45 48 50 51 52 52 52 52 52 52 50 48 46 45 45 44 43 42 43 43 44 44 44 44 44 44
38 38 38 38 39 39 37 37 38 38 38 38 38 38 37 37 38 39 40 39 38 38 38 38 38 39 39 39 39 39 39 39 38 38 37 37 38 39 40 42 42 43 44 47 49 51 51 52 52 53 53 53 51 48 47 46 46 45 43 42 42 42 43 44 44 44 44 44 44
39 38 39 40 40 39 37 38 39 39 38 37 37 37 37 38 39 39 39 39 39 40 41 40 39 39 39 40 40 39 38 38 38 38 38 37 38 39 40 42 42 43 45 48 49 51 51 52 52 53 53 53 51 49 48 48 47 46 44 43 43 43 44 44 44 44 44 44 44
38 39 41 42 41 39 39 39 38 37 36 36 36 37 38 39 40 40 40 41 42 42 42 40 39 40 40 40 39 39 39 39 38 38 38 38 40 41 42 43 42 43 44 47 49 50 51 52 52 53 53 53 52 50 49 48 47 47 46 45 45 44 44 44 43 43 43 44 44
38 40 42 43 42 40 39 37 36 35 35 36 37 38 40 41 41 41 41 41 41 40 39 37 38 39 39 38 38 39 39 39 38 38 38 39 40 42 42 42 41 42 44 47 49 50 51 51 52 52 52 52 52 50 49 48 47 47 47 46 45 44 44 43 43 43 43 44 44
38 40 42 43 42 40 38 36 35 35 35 36 38 39 41 42 41 39 38 38 38 38 37 37 38 39 39 38 39 39 39 39 39 39 39 39 39 40 40 41 41 42 44 47 49 50 51 51 51 51 52 52 51 50 48 47 46 46 45 44 44 43 43 43 44 44 44 44 44
38 39 41 43 42 40 37 35 35 35 36 37 38 39 40 40 38 37 36 36 37 37 38 39 40 41 41 41 41 40 40 40 40 40 40 40 39 39 39 41 41 43 45 48 49 50 50 51 51 51 51 52 50 49 47 47 46 45 44 43 43 43 42 41 42 43 44 44 44
38 39 41 42 42 39 37 35 35 36 37 38 38 38 38 38 38 38 38 38 37 37 37 38 39 40 40 40 40 40 40 42 41 39 38 37 37 38 39 41 41 43 45 48 49 49 50 50 50 51 51 51 50 48 47 46 45 44 44 43 43 42 41 41 42 43 43 43 43
38 40 41 42 41 39 37 36 36 37 38 40 39 38 37 37 38 39 39 40 38 37 36 36 36 36 36 36 36 37 38 39 39 39 38 37 37 38 40 41 41 43 45 47 48 49 49 49 50 50 50 51 49 48 46 45 45 44 43 43 42 42 41 41 42 43 43 43 43
39 40 41 41 40 39 37 37 37 38 39 41 40 39 38 37 37 37 38 40 39 37 36 35 35 35 36 36 36 37 38 38 38 38 38 38 38 38 39 40 41 43 45 47 47 48 48 49 49 50 50 50 48 46 45 45 45 43 42 42 42 42 42 43 43 43 43 43 43
39 41 42 42 40 39 38 38 38 39 40 41 41 41 40 38 37 36 36 38 38 38 38 37 37 37 38 38 38 38 38 37 37 38 38 39 39 39 39 40 40 42 43 45 47 47 48 48 49 49 49 49 47 45 44 45 44 43 43 42 42 43 44 44 44 44 43 43 43
39 41 42 42 41 40 39 38 40 41 42 42 41 40 39 37 36 36 36 39 39 39 39 38 38 38 38 37 37 37 37 36 36 37 38 39 38 38 38 39 39 41 42 44 46 47 47 48 49 49 49 48 47 46 45 44 43 43 43 44 44 44 45 45 45 44 43 43 43
39 41 42 43 42 40 39 39 40 42 42 43 41 39 37 36 36 36 37 39 39 39 40 40 39 38 37 36 37 37 36 36 36 36 37 38 38 39 39 39 40 41 42 44 45 46 47 48 48 49 49 49 48 46 44 43 43 43 44 44 44 44 45 45 44 44 43 43 44
39 40 41 43 42 41 40 40 41 42 42 42 41 39 37 36 37 37 37 37 36 37 38 39 38 37 36 37 37 36 36 37 37 37 37 38 38 40 41 41 41 41 41 42 44 45 46 47 48 48 49 49 48 46 44 43 43 43 43 43 43 44 44 45 44 44 43 43 44
39 40 41 42 42 42 41 42 42 42 41 41 40 39 38 37 36 35 34 34 34 35 36 37 36 35 35 37 36 35 35 37 38 37 37 38 38 39 40 40 39 39 39 40 42 44 46 47 48 48 49 49 48 46 44 43 43 43 42 42 43 44 44 44 44 44 44 43 43
MSLP
1021.82 1022.02 1022.14 1022.26 1022.46 1022.74 1023.14 1023.58 1023.98 1024.42 1024.86 1025.30 1025.66 1025.94 1026.10 1026.22 1026.50 1026.66 1026.70 1026.62 1026.50 1026.38 1026.38 1026.34 1026.34 1026.42 1026.54 1026.54 1026.38 1026.26 1026.18 1026.22 1026.22 1026.30 1026.38 1026.54 1026.58 1026.66 1026.66 1026.62 1026.62 1026.62 1026.66 1026.74 1026.82 1026.82 1026.86 1026.90 1026.90 1026.90 1026.94 1026.94 1026.98 1027.06 1027.10 1027.18 1027.14 1027.10 1027.06 1027.02 1026.98 1026.98 1026.94 1026.90 1026.82 1026.82 1026.82 1026.82 1026.82
1021.86 1022.02 1022.18 1022.34 1022.46 1022.74 1023.10 1023.58 1024.06 1024.54 1024.98 1025.38 1025.70 1025.94 1026.18 1026.42 1026.66 1026.78 1026.74 1026.58 1026.50 1026.46 1026.42 1026.46 1026.54 1026.54 1026.54 1026.54 1026.38 1026.26 1026.22 1026.22 1026.34 1026.42 1026.54 1026.62 1026.66 1026.66 1026.70 1026.70 1026.70 1026.74 1026.78 1026.82 1026.82 1026.82 1026.82 1026.86 1026.82 1026.86 1026.94 1027.02 1027.02 1027.06 1027.10 1027.18 1027.14 1027.10 1027.02 1026.98 1026.98 1026.98 1026.94 1026.86 1026.82 1026.82 1026.82 1026.82 1026.82
1021.82 1022.06 1022.22 1022.34 1022.46 1022.70 1023.10 1023.54 1024.06 1024.54 1025.02 1025.46 1025.78 1026.06 1026.34 1026.58 1026.70 1026.70 1026.66 1026.58 1026.54 1026.54 1026.54 1026.54 1026.58 1026.58 1026.54 1026.54 1026.42 1026.38 1026.34 1026.34 1026.42 1026.50 1026.58 1026.66 1026.74 1026.78 1026.78 1026.78 1026.82 1026.82 1026.82 1026.82 1026.82 1026.82 1026.86 1026.86 1026.86 1026.86 1026.94 1027.02 1027.02 1027.02 1027.10 1027.18 1027.14 1027.06 1026.94 1026.94 1026.94 1026.94 1026.90 1026.82 1026.78 1026.82 1026.82 1026.82 1026.82
1021.82 1022.06 1022.22 1022.38 1022.50 1022.74 1023.10 1023.54 1024.02 1024.54 1024.98 1025.42 1025.82 1026.14 1026.42 1026.62 1026.66 1026.66 1026.62 1026.58 1026.54 1026.54 1026.54 1026.58 1026.62 1026.58 1026.54 1026.50 1026.46 1026.46 1026.42 1026.42 1026.46 1026.54 1026.58 1026.70 1026.78 1026.82 1026.86 1026.86 1026.82 1026.82 1026.82 1026.86 1026.82 1026.86 1026.94 1026.94 1026.94 1026.94 1026.94 1027.02 1026.98 1026.94 1026.98 1027.10 1027.10 1027.06 1026.94 1026.94 1026.94 1026.90 1026.82 1026.78 1026.74 1026.78 1026.78 1026.74 1026.74
1021.94 1022.10 1022.22 1022.38 1022.66 1022.94 1023.26 1023.62 1024.06 1024.54 1025.02 1025.46 1025.86 1026.22 1026.42 1026.54 1026.58 1026.54 1026.54 1026.54 1026.54 1026.54 1026.54 1026.58 1026.58 1026.58 1026.54 1026.54 1026.50 1026.54 1026.54 1026.54 1026.54 1026.54 1026.66 1026.78 1026.82 1026.86 1026.86 1026.82 1026.82 1026.82 1026.82 1026.90 1026.86 1026.94 1026.98 1027.02 1026.98 1026.98 1027.02 1027.06 1027.06 1027.02 1027.02 1027.10 1027.06 1027.02 1026.94 1026.94 1026.94 1026.86 1026.82 1026.74 1026.70 1026.74 1026.74 1026.66 1026.66
1022.10 1022.22 1022.42 1022.66 1022.94 1023.22 1023.54 1023.86 1024.18 1024.58 1025.02 1025.46 1025.82 1026.14 1026.34 1026.42 1026.42 1026.38 1026.38 1026.42 1026.50 1026.54 1026.62 1026.62 1026.54 1026.54 1026.58 1026.58 1026.54 1026.54 1026.58 1026.66 1026.66 1026.66 1026.70 1026.78 1026.82 1026.82 1026.82 1026.82 1026.82 1026.86 1026.86 1026.94 1026.94 1027.02 1027.06 1027.02 1026.98 1026.98 1027.02 1027.10 1027.10 1027.10 1027.10 1027.18 1027.06 1026.94 1026.90 1026.86 1026.82 1026.82 1026.78 1026.70 1026.66 1026.70 1026.66 1026.62 1026.58
1022.22 1022.42 1022.66 1022.94 1023.22 1023.46 1023.74 1024.06 1024.34 1024.70 1025.10 1025.46 1025.78 1026.02 1026.10 1026.18 1026.18 1026.22 1026.26 1026.38 1026.50 1026.54 1026.54 1026.54 1026.54 1026.54 1026.54 1026.58 1026.54 1026.54 1026.62 1026.66 1026.74 1026.78 1026.74 1026.74 1026.78 1026.82 1026.82 1026.86 1026.86 1026.94 1026.94 1026.98 1026.98 1027.02 1027.02 1027.02 1026.98 1026.94 1026.98 1027.02 1027.02 1027.10 1027.14 1027.18 1027.06 1026.94 1026.78 1026.66 1026.66 1026.70 1026.70 1026.66 1026.66 1026.66 1026.62 1026.54 1026.50
1022.38 1022.62 1022.86 1023.14 1023.38 1023.62 1023.90 1024.18 1024.46 1024.78 1025.10 1025.42 1025.66 1025.86 1025.94 1025.98 1026.10 1026.14 1026.26 1026.38 1026.42 1026.46 1026.50 1026.54 1026.58 1026.54 1026.54 1026.54 1026.54 1026.58 1026.62 1026.66 1026.70 1026.74 1026.78 1026.78 1026.78 1026.82 1026.86 1026.94 1026.94 1026.94 1027.02 1027.06 1027.02 1027.02 1027.02 1027.02 1026.98 1026.94 1026.94 1026.98 1026.94 1027.02 1027.10 1027.10 1027.02 1026.86 1026.74 1026.62 1026.62 1026.66 1026.66 1026.66 1026.66 1026.66 1026.58 1026.54 1026.42
1022.62 1022.86 1023.10 1023.30 1023.54 1023.74 1023.94 1024.22 1024.50 1024.78 1025.10 1025.38 1025.58 1025.78 1025.86 1025.94 1026.02 1026.10 1026.22 1026.30 1026.38 1026.42 1026.54 1026.58 1026.62 1026.58 1026.54 1026.54 1026.58 1026.62 1026.66 1026.66 1026.66 1026.66 1026.74 1026.82 1026.82 1026.86 1026.94 1026.94 1026.94 1026.94 1026.98 1027.06 1027.06 1027.02 1026.98 1026.94 1026.94 1026.94 1026.94 1026.94 1026.90 1026.94 1026.98 1026.98 1026.90 1026.82 1026.66 1026.62 1026.58 1026.58 1026.58 1026.62 1026.66 1026.62 1026.54 1026.46 1026.38
1022.78 1023.02 1023.26 1023.50 1023.70 1023.86 1024.10 1024.38 1024.62 1024.86 1025.10 1025.38 1025.58 1025.74 1025.82 1025.90 1026.02 1026.10 1026.14 1026.26 1026.38 1026.50 1026.54 1026.62 1026.62 1026.62 1026.58 1026.58 1026.58 1026.62 1026.66 1026.66 1026.66 1026.70 1026.82 1026.82 1026.86 1026.90 1026.94 1026.94 1026.94 1026.90 1026.94 1026.98 1027.02 1027.02 1026.94 1026.90 1026.86 1026.90 1026.90 1026.90 1026.86 1026.86 1026.90 1026.90 1026.82 1026.70 1026.66 1026.58 1026.54 1026.50 1026.46 1026.50 1026.54 1026.54 1026.50 1026.38 1026.34
1022.90 1023.14 1023.38 1023.58 1023.82 1024.02 1024.26 1024.54 1024.82 1025.06 1025.26 1025.46 1025.62 1025.74 1025.82 1025.90 1026.02 1026.10 1026.18 1026.30 1026.38 1026.50 1026.58 1026.62 1026.62 1026.54 1026.54 1026.54 1026.62 1026.66 1026.70 1026.74 1026.78 1026.82 1026.82 1026.86 1026.90 1026.90 1026.94 1026.94 1026.94 1026.90 1026.90 1026.94 1026.94 1026.94 1026.90 1026.82 1026.78 1026.78 1026.82 1026.82 1026.82 1026.82 1026.82 1026.82 1026.78 1026.66 1026.62 1026.54 1026.54 1026.50 1026.38 1026.26 1026.34 1026.38 1026.38 1026.34 1026.26
1023.10 1023.34 1023.54 1023.74 1023.98 1024.22 1024.42 1024.70 1024.94 1025.18 1025.38 1025.54 1025.66 1025.78 1025.86 1025.94 1026.06 1026.10 1026.22 1026.26 1026.34 1026.46 1026.62 1026.66 1026.62 1026.54 1026.50 1026.54 1026.66 1026.70 1026.78 1026.82 1026.86 1026.86 1026.86 1026.90 1026.94 1026.94 1026.94 1026.90 1026.90 1026.90 1026.90 1026.90 1026.94 1026.90 1026.82 1026.78 1026.74 1026.70 1026.70 1026.70 1026.74 1026.74 1026.74 1026.78 1026.70 1026.66 1026.54 1026.54 1026.50 1026.38 1026.26 1026.14 1026.18 1026.22 1026.26 1026.22 1026.22
1023.30 1023.54 1023.78 1023.98 1024.18 1024.38 1024.62 1024.86 1025.06 1025.22 1025.42 1025.54 1025.66 1025.82 1025.90 1026.02 1026.10 1026.14 1026.18 1026.22 1026.34 1026.42 1026.58 1026.66 1026.62 1026.54 1026.54 1026.62 1026.70 1026.78 1026.82 1026.86 1026.86 1026.86 1026.86 1026.86 1026.90 1026.90 1026.90 1026.86 1026.86 1026.86 1026.82 1026.82 1026.86 1026.86 1026.82 1026.74 1026.74 1026.70 1026.66 1026.62 1026.66 1026.66 1026.70 1026.70 1026.66 1026.58 1026.50 1026.42 1026.38 1026.22 1026.10 1026.06 1026.06 1026.10 1026.18 1026.22 1026.10
1023.54 1023.74 1023.94 1024.14 1024.34 1024.54 1024.70 1024.94 1025.10 1025.26 1025.42 1025.58 1025.70 1025.82 1025.94 1026.10 1026.14 1026.18 1026.18 1026.18 1026.30 1026.42 1026.54 1026.62 1026.66 1026.66 1026.66 1026.70 1026.74 1026.82 1026.82 1026.86 1026.86 1026.86 1026.82 1026.82 1026.86 1026.86 1026.82 1026.82 1026.82 1026.78 1026.78 1026.78 1026.82 1026.82 1026.78 1026.74 1026.70 1026.70 1026.66 1026.62 1026.58 1026.62 1026.66 1026.66 1026.62 1026.54 1026.42 1026.30 1026.22 1026.10 1025.98 1025.94 1025.94 1026.02 1026.06 1026.06 1025.98
1023.78 1023.94 1024.14 1024.30 1024.46 1024.62 1024.82 1024.98 1025.14 1025.30 1025.42 1025.62 1025.74 1025.86 1025.94 1026.10 1026.14 1026.18 1026.18 1026.22 1026.30 1026.42 1026.54 1026.58 1026.66 1026.74 1026.82 1026.82 1026.82 1026.82 1026.82 1026.86 1026.82 1026.82 1026.82 1026.82 1026.82 1026.82 1026.78 1026.74 1026.74 1026.70 1026.70 1026.70 1026.74 1026.78 1026.74 1026.74 1026.70 1026.66 1026.66 1026.58 1026.54 1026.54 1026.54 1026.54 1026.50 1026.38 1026.30 1026.18 1026.10 1026.02 1025.94 1025.86 1025.86 1025.90 1025.94 1025.90 1025.86
1024.02 1024.18 1024.30 1024.42 1024.54 1024.70 1024.86 1025.02 1025.18 1025.30 1025.46 1025.62 1025.82 1025.90 1025.98 1026.10 1026.14 1026.18 1026.22 1026.22 1026.38 1026.46 1026.54 1026.54 1026.66 1026.70 1026.82 1026.82 1026.86 1026.86 1026.86 1026.82 1026.82 1026.82 1026.74 1026.70 1026.74 1026.70 1026.70 1026.66 1026.66 1026.62 1026.62 1026.66 1026.66 1026.66 1026.70 1026.70 1026.66 1026.66 1026.62 1026.58 1026.54 1026.42 1026.38 1026.38 1026.34 1026.22 1026.18 1026.10 1026.02 1025.94 1025.90 1025.82 1025.82 1025.82 1025.82 1025.82 1025.78
1024.14 1024.30 1024.38 1024.46 1024.62 1024.74 1024.90 1025.06 1025.22 1025.34 1025.50 1025.66 1025.82 1025.90 1025.94 1026.06 1026.10 1026.14 1026.18 1026.26 1026.38 1026.42 1026.54 1026.58 1026.66 1026.66 1026.70 1026.78 1026.82 1026.82 1026.82 1026.78 1026.78 1026.74 1026.66 1026.66 1026.66 1026.62 1026.58 1026.58 1026.54 1026.54 1026.58 1026.58 1026.54 1026.54 1026.58 1026.62 1026.66 1026.66 1026.62 1026.54 1026.46 1026.34 1026.22 1026.22 1026.14 1026.06 1025.98 1025.94 1025.90 1025.86 1025.82 1025.82 1025.74 1025.70 1025.74 1025.74 1025.70
1024.26 1024.38 1024.50 1024.58 1024.70 1024.82 1024.94 1025.10 1025.22 1025.38 1025.50 1025.62 1025.74 1025.82 1025.94 1025.98 1026.10 1026.14 1026.22 1026.30 1026.34 1026.38 1026.46 1026.54 1026.66 1026.66 1026.66 1026.66 1026.74 1026.78 1026.74 1026.74 1026.70 1026.70 1026.66 1026.66 1026.62 1026.58 1026.54 1026.54 1026.54 1026.54 1026.58 1026.58 1026.54 1026.50 1026.46 1026.50 1026.54 1026.54 1026.54 1026.46 1026.38 1026.22 1026.14 1026.06 1025.98 1025.90 1025.82 1025.78 1025.78 1025.74 1025.74 1025.70 1025.66 1025.66 1025.66 1025.66 1025.58
1024.38 1024.50 1024.58 1024.66 1024.82 1024.90 1024.98 1025.06 1025.22 1025.34 1025.46 1025.58 1025.70 1025.82 1025.90 1025.98 1026.10 1026.18 1026.26 1026.34 1026.34 1026.34 1026.38 1026.54 1026.62 1026.66 1026.66 1026.66 1026.70 1026.70 1026.70 1026.66 1026.70 1026.66 1026.66 1026.66 1026.66 1026.62 1026.54 1026.54 1026.54 1026.54 1026.54 1026.54 1026.50 1026.46 1026.42 1026.38 1026.38 1026.38 1026.38 1026.26 1026.18 1026.10 1025.94 1025.86 1025.82 1025.74 1025.66 1025.66 1025.66 1025.66 1025.62 1025.58 1025.58 1025.58 1025.54 1025.54 1025.42
1024.50 1024.58 1024.66 1024.74 1024.82 1024.90 1024.94 1025.06 1025.18 1025.34 1025.46 1025.58 1025.66 1025.82 1025.94 1026.06 1026.10 1026.14 1026.22 1026.30 1026.38 1026.38 1026.38 1026.42 1026.54 1026.62 1026.66 1026.66 1026.66 1026.70 1026.70 1026.70 1026.70 1026.66 1026.66 1026.66 1026.62 1026.58 1026.54 1026.46 1026.46 1026.50 1026.50 1026.46 1026.42 1026.38 1026.34 1026.30 1026.26 1026.22 1026.18 1026.10 1025.94 1025.86 1025.74 1025.66 1025.62 1025.54 1025.54 1025.54 1025.54 1025.54 1025.50 1025.46 1025.42 1025.42 1025.42 1025.38 1025.34
1024.58 1024.66 1024.74 1024.82 1024.86 1024.94 1025.02 1025.14 1025.26 1025.38 1025.54 1025.66 1025.74 1025.82 1025.94 1026.06 1026.10 1026.14 1026.18 1026.26 1026.38 1026.42 1026.38 1026.42 1026.46 1026.54 1026.62 1026.66 1026.66 1026.66 1026.66 1026.66 1026.66 1026.66 1026.62 1026.58 1026.54 1026.50 1026.46 1026.42 1026.38 1026.38 1026.38 1026.38 1026.34 1026.26 1026.22 1026.18 1026.10 1026.06 1025.98 1025.86 1025.78 1025.66 1025.54 1025.46 1025.38 1025.38 1025.38 1025.38 1025.38 1025.38 1025.34 1025.30 1025.30 1025.34 1025.30 1025.22 1025.22
1024.66 1024.74 1024.82 1024.90 1024.94 1025.06 1025.18 1025.30 1025.38 1025.50 1025.58 1025.66 1025.82 1025.86 1025.94 1026.02 1026.10 1026.14 1026.22 1026.34 1026.38 1026.42 1026.46 1026.46 1026.50 1026.54 1026.58 1026.62 1026.62 1026.62 1026.66 1026.66 1026.66 1026.62 1026.58 1026.54 1026.46 1026.46 1026.46 1026.42 1026.38 1026.34 1026.26 1026.26 1026.22 1026.14 1026.10 1026.02 1025.94 1025.86 1025.78 1025.66 1025.54 1025.42 1025.34 1025.26 1025.18 1025.14 1025.18 1025.14 1025.14 1025.18 1025.18 1025.22 1025.22 1025.22 1025.14 1025.10 1025.10
1024.78 1024.90 1024.94 1025.06 1025.10 1025.18 1025.26 1025.38 1025.50 1025.54 1025.66 1025.74 1025.82 1025.86 1025.94 1025.98 1026.10 1026.22 1026.26 1026.34 1026.38 1026.42 1026.46 1026.50 1026.54 1026.58 1026.62 1026.62 1026.62 1026.62 1026.62 1026.58 1026.54 1026.54 1026.50 1026.46 1026.42 1026.38 1026.38 1026.38 1026.34 1026.22 1026.18 1026.10 1026.06 1026.02 1025.94 1025.82 1025.74 1025.62 1025.54 1025.46 1025.34 1025.22 1025.10 1025.02 1025.02 1024.98 1024.98 1024.98 1024.98 1024.98 1025.02 1025.06 1025.10 1025.06 1025.02 1024.98 1024.98
1024.90 1024.98 1025.10 1025.14 1025.22 1025.26 1025.38 1025.46 1025.50 1025.54 1025.62 1025.66 1025.74 1025.82 1025.90 1025.98 1026.10 1026.22 1026.26 1026.34 1026.38 1026.42 1026.50 1026.54 1026.54 1026.58 1026.66 1026.66 1026.66 1026.62 1026.54 1026.46 1026.42 1026.38 1026.34 1026.34 1026.30 1026.30 1026.30 1026.26 1026.22 1026.14 1026.10 1026.02 1025.94 1025.86 1025.78 1025.58 1025.38 1025.26 1025.22 1025.18 1025.10 1024.94 1024.86 1024.82 1024.82 1024.82 1024.82 1024.82 1024.86 1024.90 1024.90 1024.94 1024.94 1024.94 1024.86 1024.86 1024.82
1024.98 1025.02 1025.10 1025.22 1025.26 1025.34 1025.38 1025.38 1025.42 1025.50 1025.58 1025.66 1025.74 1025.82 1025.90 1025.98 1026.10 1026.18 1026.22 1026.30 1026.38 1026.42 1026.50 1026.54 1026.54 1026.58 1026.62 1026.62 1026.62 1026.58 1026.50 1026.38 1026.34 1026.22 1026.22 1026.18 1026.18 1026.22 1026.18 1026.10 1026.10 1026.06 1025.98 1025.90 1025.78 1025.58 1025.38 1025.22 1025.06 1024.94 1024.90 1024.82 1024.78 1024.70 1024.66 1024.66 1024.66 1024.70 1024.70 1024.74 1024.78 1024.78 1024.78 1024.78 1024.78 1024.78 1024.74 1024.70 1024.70
1024.98 1025.06 1025.10 1025.22 1025.22 1025.26 1025.30 1025.34 1025.38 1025.46 1025.58 1025.66 1025.82 1025.86 1025.94 1026.02 1026.10 1026.14 1026.18 1026.26 1026.38 1026.42 1026.46 1026.54 1026.54 1026.54 1026.50 1026.50 1026.50 1026.42 1026.38 1026.34 1026.26 1026.22 1026.18 1026.14 1026.10 1026.10 1026.06 1025.98 1025.98 1025.98 1025.94 1025.78 1025.58 1025.38 1025.22 1025.06 1024.94 1024.82 1024.70 1024.62 1024.54 1024.46 1024.46 1024.54 1024.62 1024.66 1024.66 1024.66 1024.66 1024.66 1024.66 1024.62 1024.58 1024.58 1024.58 1024.58 1024.58
1024.94 1025.02 1025.10 1025.14 1025.18 1025.22 1025.26 1025.34 1025.42 1025.50 1025.62 1025.70 1025.78 1025.86 1025.94 1026.02 1026.06 1026.10 1026.14 1026.22 1026.30 1026.38 1026.42 1026.46 1026.42 1026.38 1026.38 1026.38 1026.34 1026.26 1026.22 1026.22 1026.22 1026.22 1026.18 1026.18 1026.10 1026.06 1025.98 1025.94 1025.94 1025.90 1025.82 1025.66 1025.46 1025.26 1025.10 1024.94 1024.82 1024.70 1024.58 1024.46 1024.38 1024.38 1024.46 1024.50 1024.54 1024.54 1024.58 1024.66 1024.66 1024.62 1024.54 1024.54 1024.50 1024.46 1024.46 1024.42 1024.38
1024.86 1024.94 1025.02 1025.10 1025.10 1025.22 1025.26 1025.38 1025.46 1025.54 1025.58 1025.66 1025.78 1025.86 1025.94 1026.02 1026.06 1026.10 1026.10 1026.22 1026.26 1026.34 1026.38 1026.34 1026.38 1026.34 1026.26 1026.22 1026.18 1026.14 1026.14 1026.18 1026.18 1026.18 1026.18 1026.18 1026.10 1026.06 1025.98 1025.94 1025.86 1025.82 1025.66 1025.54 1025.38 1025.18 1025.02 1024.90 1024.74 1024.58 1024.42 1024.34 1024.30 1024.38 1024.46 1024.42 1024.46 1024.54 1024.54 1024.58 1024.58 1024.54 1024.50 1024.42 1024.38 1024.38 1024.38 1024.34 1024.30
1024.78 1024.86 1024.94 1025.02 1025.10 1025.18 1025.26 1025.38 1025.42 1025.54 1025.58 1025.66 1025.78 1025.86 1025.94 1025.94 1025.98 1026.06 1026.10 1026.18 1026.22 1026.18 1026.14 1026.18 1026.22 1026.22 1026.14 1026.10 1026.10 1026.10 1026.10 1026.14 1026.14 1026.18 1026.14 1026.14 1026.10 1026.06 1025.98 1025.90 1025.82 1025.70 1025.58 1025.46 1025.26 1025.10 1024.94 1024.82 1024.66 1024.50 1024.34 1024.26 1024.22 1024.34 1024.38 1024.38 1024.38 1024.38 1024.42 1024.46 1024.46 1024.42 1024.38 1024.34 1024.34 1024.30 1024.26 1024.22 1024.18
1024.70 1024.78 1024.82 1024.94 1024.98 1025.10 1025.22 1025.34 1025.38 1025.46 1025.58 1025.70 1025.78 1025.82 1025.86 1025.90 1025.94 1026.02 1026.06 1026.10 1026.06 1026.02 1026.06 1026.10 1026.10 1026.10 1026.02 1026.06 1026.06 1026.06 1026.06 1026.10 1026.14 1026.14 1026.10 1026.10 1025.98 1025.94 1025.82 1025.78 1025.74 1025.66 1025.54 1025.38 1025.22 1025.06 1024.90 1024.74 1024.58 1024.42 1024.34 1024.26 1024.22 1024.22 1024.34 1024.38 1024.38 1024.34 1024.30 1024.30 1024.26 1024.30 1024.26 1024.26 1024.26 1024.22 1024.22 1024.14 1024.10
1024.66 1024.70 1024.74 1024.82 1024.94 1025.06 1025.18 1025.30 1025.38 1025.50 1025.58 1025.66 1025.70 1025.74 1025.78 1025.82 1025.86 1025.90 1025.94 1025.94 1025.94 1025.98 1026.06 1026.10 1026.10 1026.02 1026.02 1026.10 1026.10 1026.06 1026.06 1026.10 1026.10 1026.10 1026.10 1026.10 1025.94 1025.86 1025.82 1025.78 1025.74 1025.66 1025.54 1025.34 1025.14 1024.98 1024.82 1024.66 1024.54 1024.42 1024.38 1024.30 1024.22 1024.22 1024.26 1024.30 1024.30 1024.26 1024.22 1024.22 1024.18 1024.18 1024.18 1024.18 1024.18 1024.18 1024.10 1024.02 1023.98
1024.62 1024.66 1024.66 1024.74 1024.86 1024.98 1025.14 1025.26 1025.38 1025.46 1025.54 1025.58 1025.66 1025.66 1025.70 1025.70 1025.82 1025.86 1025.90 1025.94 1025.94 1026.02 1026.02 1026.02 1026.06 1026.02 1026.02 1026.02 1026.02 1026.02 1026.02 1026.02 1026.02 1026.02 1026.02 1025.98 1025.94 1025.90 1025.82 1025.74 1025.66 1025.58 1025.46 1025.26 1025.10 1024.90 1024.74 1024.66 1024.54 1024.46 1024.38 1024.26 1024.18 1024.22 1024.26 1024.30 1024.26 1024.22 1024.22 1024.22 1024.18 1024.14 1024.14 1024.14 1024.10 1024.02 1023.98 1023.94 1023.90
1024.54 1024.54 1024.62 1024.66 1024.78 1024.94 1025.10 1025.22 1025.30 1025.38 1025.46 1025.54 1025.58 1025.62 1025.66 1025.66 1025.78 1025.86 1025.94 1025.94 1025.94 1025.98 1025.94 1025.94 1025.98 1025.98 1025.94 1025.94 1025.98 1025.98 1025.94 1025.94 1025.94 1025.94 1025.94 1025.94 1025.94 1025.86 1025.82 1025.66 1025.58 1025.50 1025.38 1025.18 1025.02 1024.86 1024.70 1024.66 1024.54 1024.46 1024.34 1024.22 1024.18 1024.22 1024.26 1024.22 1024.22 1024.22 1024.18 1024.14 1024.14 1024.10 1024.14 1024.10 1024.06 1023.94 1023.90 1023.82 1023.82
1024.38 1024.46 1024.50 1024.54 1024.66 1024.82 1025.02 1025.14 1025.22 1025.30 1025.38 1025.46 1025.54 1025.54 1025.62 1025.66 1025.74 1025.82 1025.82 1025.86 1025.90 1025.94 1025.98 1025.98 1025.98 1025.98 1025.98 1025.98 1026.02 1025.98 1025.94 1025.90 1025.94 1025.94 1025.98 1025.98 1025.94 1025.86 1025.74 1025.62 1025.54 1025.42 1025.30 1025.10 1024.94 1024.82 1024.74 1024.66 1024.54 1024.42 1024.30 1024.14 1024.10 1024.14 1024.18 1024.18 1024.14 1024.14 1024.10 1024.10 1024.06 1024.06 1024.10 1024.06 1023.94 1023.90 1023.82 1023.78 1023.74
1024.26 1024.34 1024.42 1024.50 1024.62 1024.78 1024.94 1025.06 1025.14 1025.22 1025.30 1025.38 1025.42 1025.54 1025.58 1025.62 1025.66 1025.70 1025.70 1025.74 1025.82 1025.94 1025.98 1026.06 1026.10 1026.10 1026.10 1026.10 1026.10 1026.06 1025.98 1025.94 1025.90 1025.94 1025.94 1025.94 1025.90 1025.78 1025.66 1025.54 1025.46 1025.38 1025.22 1025.10 1024.94 1024.86 1024.74 1024.66 1024.54 1024.38 1024.26 1024.10 1024.10 1024.14 1024.14 1024.10 1024.10 1024.02 1024.02 1023.98 1023.94 1023.94 1023.94 1023.94 1023.82 1023.82 1023.78 1023.74 1023.66
1024.10 1024.18 1024.26 1024.42 1024.54 1024.70 1024.82 1024.94 1025.10 1025.18 1025.22 1025.26 1025.34 1025.42 1025.50 1025.58 1025.62 1025.66 1025.70 1025.70 1025.82 1025.86 1025.94 1026.02 1026.10 1026.10 1026.06 1026.06 1026.06 1025.98 1025.94 1025.94 1025.90 1025.86 1025.82 1025.82 1025.78 1025.66 1025.58 1025.46 1025.38 1025.34 1025.22 1025.10 1024.98 1024.86 1024.78 1024.62 1024.54 1024.38 1024.18 1024.10 1024.10 1024.10 1024.10 1024.10 1024.02 1023.94 1023.94 1023.94 1023.86 1023.82 1023.82 1023.74 1023.66 1023.66 1023.66 1023.58 1023.54
1023.98 1024.06 1024.10 1024.26 1024.46 1024.58 1024.74 1024.86 1024.98 1025.06 1025.10 1025.14 1025.22 1025.26 1025.38 1025.46 1025.58 1025.66 1025.74 1025.74 1025.82 1025.82 1025.86 1025.94 1025.98 1025.98 1025.94 1025.94 1025.90 1025.90 1025.90 1025.94 1025.86 1025.82 1025.78 1025.70 1025.66 1025.66 1025.58 1025.50 1025.38 1025.30 1025.22 1025.10 1024.98 1024.90 1024.78 1024.62 1024.46 1024.30 1024.14 1024.02 1024.02 1024.06 1024.02 1023.98 1023.94 1023.90 1023.86 1023.82 1023.74 1023.66 1023.58 1023.54 1023.54 1023.54 1023.50 1023.42 1023.38
1023.86 1023.94 1024.02 1024.14 1024.30 1024.46 1024.62 1024.78 1024.86 1024.94 1024.94 1025.02 1025.10 1025.18 1025.30 1025.42 1025.54 1025.62 1025.66 1025.66 1025.70 1025.74 1025.78 1025.82 1025.86 1025.86 1025.86 1025.90 1025.86 1025.86 1025.90 1025.94 1025.86 1025.82 1025.70 1025.66 1025.62 1025.62 1025.58 1025.50 1025.42 1025.34 1025.22 1025.10 1024.98 1024.86 1024.74 1024.58 1024.42 1024.22 1024.10 1023.98 1023.90 1023.90 1023.90 1023.90 1023.86 1023.82 1023.70 1023.58 1023.54 1023.46 1023.42 1023.42 1023.42 1023.38 1023.34 1023.30 1023.18
1023.74 1023.82 1023.94 1024.02 1024.18 1024.34 1024.54 1024.66 1024.70 1024.78 1024.82 1024.86 1024.98 1025.14 1025.30 1025.38 1025.46 1025.54 1025.54 1025.54 1025.58 1025.62 1025.66 1025.70 1025.78 1025.82 1025.86 1025.86 1025.82 1025.82 1025.82 1025.82 1025.82 1025.78 1025.66 1025.66 1025.62 1025.58 1025.54 1025.46 1025.38 1025.30 1025.22 1025.10 1024.94 1024.82 1024.70 1024.54 1024.38 1024.18 1024.02 1023.90 1023.82 1023.82 1023.82 1023.82 1023.78 1023.66 1023.54 1023.46 1023.38 1023.30 1023.26 1023.26 1023.26 1023.22 1023.18 1023.10 1022.98
1023.66 1023.78 1023.86 1023.94 1024.06 1024.22 1024.38 1024.50 1024.54 1024.58 1024.66 1024.78 1024.90 1025.10 1025.22 1025.26 1025.34 1025.38 1025.46 1025.54 1025.66 1025.66 1025.66 1025.70 1025.78 1025.82 1025.86 1025.82 1025.82 1025.78 1025.74 1025.70 1025.70 1025.70 1025.66 1025.62 1025.62 1025.54 1025.38 1025.34 1025.30 1025.22 1025.18 1025.10 1024.94 1024.82 1024.66 1024.50 1024.30 1024.10 1023.94 1023.82 1023.74 1023.70 1023.70 1023.66 1023.58 1023.50 1023.42 1023.38 1023.34 1023.22 1023.10 1023.06 1023.02 1023.02 1023.02 1022.94 1022.82
1023.58 1023.70 1023.82 1023.86 1023.94 1024.10 1024.22 1024.30 1024.38 1024.50 1024.58 1024.70 1024.82 1024.94 1025.10 1025.22 1025.34 1025.42 1025.54 1025.66 1025.70 1025.70 1025.70 1025.74 1025.78 1025.82 1025.82 1025.78 1025.78 1025.78 1025.70 1025.62 1025.54 1025.58 1025.62 1025.58 1025.58 1025.50 1025.38 1025.34 1025.30 1025.22 1025.14 1025.06 1024.94 1024.82 1024.62 1024.42 1024.22 1024.06 1023.90 1023.74 1023.66 1023.62 1023.58 1023.50 1023.38 1023.34 1023.30 1023.22 1023.18 1023.10 1022.94 1022.82 1022.82 1022.82 1022.82 1022.78 1022.66
Wind_Speed
9 8 7 8 8 8 8 8 8 7 6 6 5 4 3 3 2 2 3 3 3 3 3 3 3 3 4 4 4 5 6 6 6 6 5 5 4 3 3 3 3 3 3 3 2 2 2 2 2 2 2 1 2 1 1 1 1 1 1 1 1 2 2 2 2 2 3 3 2
10 10 10 10 9 9 8 8 8 7 7 5 5 4 3 3 3 3 3 3 3 3 3 3 3 4 4 4 4 5 5 6 6 5 5 4 3 3 3 3 3 3 3 2 2 2 1 1 1 1 1 1 1 1 1 1 1 1 1 2 1 1 2 2 2 2 2 2 2
11 10 9 9 9 9 8 8 8 8 8 6 5 4 3 3 4 4 3 3 3 3 3 3 4 4 5 4 4 4 4 5 5 5 4 4 3 3 3 3 3 3 3 2 2 1 1 1 1 1 1 1 1 1 1 1 1 1 1 1 1 1 2 2 2 1 1 1 2
10 10 9 10 11 11 10 8 9 10 9 7 6 5 4 4 4 4 4 4 4 4 4 4 4 4 4 4 4 4 4 4 4 4 4 3 3 3 3 2 3 3 2 2 2 2 1 1 1 0 0 1 1 1 1 1 2 1 1 1 1 1 2 1 1 1 1 1 1
9 9 9 9 11 11 10 9 11 10 9 7 6 5 5 4 4 4 4 4 4 4 4 4 4 3 3 4 4 4 4 4 4 4 3 3 3 2 2 2 3 3 2 2 2 2 1 1 0 0 0 0 0 0 0 1 1 1 1 1 1 1 1 1 1 1 1 1 1
9 9 9 9 10 10 9 9 11 10 9 8 7 7 6 5 5 5 5 5 4 4 4 5 4 4 4 4 4 4 3 3 3 3 3 3 2 2 3 3 3 2 2 2 2 1 1 0 0 0 0 0 0 0 0 1 1 1 1 1 1 1 1 1 1 1 1 1 2
10 10 10 10 10 10 9 10 10 10 9 8 9 9 8 7 7 7 6 5 5 5 4 4 4 4 3 3 3 3 3 3 2 2 2 3 2 3 3 3 3 2 2 2 1 1 1 0 0 1 1 1 1 1 1 1 1 2 2 1 1 1 1 1 1 1 1 2 3
10 10 11 11 11 11 12 12 11 10 9 8 9 10 10 9 8 8 7 6 5 4 4 3 3 3 3 3 3 3 3 3 2 2 2 2 3 3 3 2 2 2 1 1 1 1 0 0 0 0 1 1 1 1 1 1 1 2 2 2 1 1 1 1 1 1 2 2 3
10 10 11 11 11 12 12 12 11 10 9 8 9 9 9 9 8 8 7 6 5 4 3 2 2 3 3 3 3 3 2 2 3 2 2 2 2 2 2 1 1 1 1 1 1 1 1 1 1 1 1 1 1 1 1 1 1 2 2 2 2 2 1 1 1 1 2 2 3
10 10 11 10 11 11 11 10 10 10 9 9 9 8 8 8 8 7 5 4 4 3 3 2 2 3 3 3 3 3 2 2 2 2 2 2 2 2 1 1 1 1 1 1 1 1 1 1 1 1 1 1 1 1 1 1 1 2 2 2 2 3 3 2 1 1 2 2 3
11 11 10 10 10 10 10 9 9 8 8 8 8 8 7 7 6 5 4 4 4 4 3 2 2 3 3 3 2 2 2 2 2 2 2 1 1 1 1 1 1 1 1 1 1 1 1 1 1 1 1 1 1 1 1 1 1 2 2 2 3 4 4 3 2 2 2 2 3
11 11 10 10 10 10 10 9 8 8 8 8 7 6 6 5 5 5 5 4 5 4 3 1 2 2 3 3 2 2 2 2 1 1 2 1 1 1 1 1 1 1 1 1 1 1 1 1 1 1 1 1 1 1 1 1 1 2 3 3 3 4 4 4 3 2 2 2 3
11 10 10 10 10 10 10 9 8 7 7 7 7 6 5 4 4 4 4 5 5 4 2 1 1 2 2 2 2 2 2 1 1 1 1 1 1 1 1 1 1 1 1 1 1 1 1 1 1 1 1 1 1 1 1 2 2 3 3 4 4 4 5 5 4 3 2 3 4
11 10 10 10 10 10 9 8 7 7 7 7 6 5 4 4 3 3 3 4 4 4 2 2 2 2 2 2 2 2 2 2 2 2 1 1 1 1 1 1 1 1 1 1 1 1 1 1 1 1 2 2 2 2 2 2 3 3 4 4 5 5 6 6 4 3 3 4 5
10 10 10 10 9 9 8 8 7 6 6 6 5 4 4 3 2 2 3 4 4 3 3 2 2 2 2 1 2 2 2 2 2 2 2 1 1 1 1 1 1 1 1 1 1 1 1 2 2 2 3 3 3 3 3 3 4 4 4 5 5 6 6 6 5 4 4 4 5
10 10 9 9 9 8 8 7 6 6 6 5 4 4 3 3 2 2 3 4 3 3 2 2 2 2 2 2 1 1 2 1 1 1 2 2 2 2 2 1 1 1 1 1 1 1 2 2 2 3 3 4 4 4 4 4 4 5 5 5 5 6 6 6 6 5 5 5 5
10 9 9 9 9 8 8 6 5 5 5 5 4 3 3 2 2 3 3 4 3 3 3 3 2 2 2 2 1 1 1 1 1 1 1 1 2 2 1 1 1 1 1 1 1 2 2 2 3 3 4 5 5 5 5 5 5 5 5 6 6 6 6 7 6 6 5 5 6
9 8 8 8 8 8 8 7 6 5 5 5 4 3 3 3 3 3 3 3 3 4 4 3 2 2 2 2 1 1 1 1 1 1 1 1 1 1 1 1 1 1 1 1 2 2 3 3 3 3 4 5 5 5 5 5 5 6 6 6 6 6 6 7 6 5 5 5 6
8 8 7 8 8 8 7 7 6 5 5 4 3 3 3 3 3 3 3 2 3 3 4 4 3 2 1 2 1 1 1 1 1 1 1 1 1 1 1 1 1 1 1 2 3 3 4 4 4 4 4 5 5 5 5 5 6 6 6 6 6 6 6 6 6 5 5 5 6
7 7 7 7 7 7 6 6 5 4 4 3 3 3 3 3 3 3 4 3 2 3 3 4 3 2 2 1 1 1 1 1 1 1 1 1 1 1 1 1 1 2 2 2 3 4 4 4 4 4 5 5 5 6 6 6 6 6 6 6 6 6 6 6 5 5 5 6 6
6 6 5 5 5 5 5 4 4 4 3 3 3 3 4 3 3 3 3 3 3 2 3 3 3 3 2 2 2 1 1 1 1 1 1 1 1 1 1 2 2 2 2 3 3 4 4 5 5 5 5 5 6 6 7 6 6 6 6 5 6 6 6 5 5 5 5 6 6
5 4 4 3 3 4 4 3 3 3 3 3 3 3 3 3 3 3 3 2 2 2 2 2 2 2 2 2 2 1 1 1 1 1 1 1 1 1 2 2 2 2 3 3 3 4 4 5 5 6 6 6 6 7 7 7 7 7 6 6 6 5 5 5 5 5 5 5 6
3 3 2 2 3 3 3 3 3 3 3 3 3 3 3 3 3 3 2 2 2 2 2 1 1 1 1 1 1 1 1 1 1 1 1 1 1 1 1 2 2 2 3 3 3 4 4 5 6 6 6 6 7 7 8 8 7 6 6 6 6 5 4 4 4 4 5 5 5
3 2 2 2 3 3 3 3 3 3 3 3 3 3 3 3 3 3 2 2 2 2 1 1 1 1 1 1 1 1 1 1 1 1 1 1 1 1 1 2 2 2 3 3 4 4 5 5 5 6 6 6 6 7 7 7 6 6 5 5 5 4 4 4 4 5 5 5 5
3 3 3 3 3 3 3 3 4 4 3 3 3 3 3 3 3 3 3 2 2 1 1 1 1 1 1 1 1 1 1 1 1 1 1 1 1 1 1 1 2 2 3 3 6 8 9 9 7 6 5 5 6 6 6 6 5 5 5 4 4 4 4 4 5 5 5 5 5
3 3 3 3 3 3 3 3 3 3 3 3 3 3 3 3 3 3 3 3 2 1 1 1 1 1 2 1 2 1 1 1 0 1 1 2 2 2 2 2 2 2 3 5 7 9 11 11 11 10 8 6 6 5 4 3 3 3 4 4 4 4 4 4 5 5 5 5 5
3 3 3 3 3 3 3 3 3 3 3 3 3 3 3 3 3 3 3 3 2 1 1 1 1 1 2 1 1 1 1 1 1 0 1 1 2 3 3 3 2 2 3 6 9 10 11 11 12 11 10 8 5 3 1 1 2 3 3 3 4 4 4 5 5 5 5 5 5
4 4 3 3 3 3 3 3 3 3 3 3 3 3 3 3 3 3 3 2 2 1 1 1 1 1 1 1 1 1 0 0 0 0 1 1 2 2 3 3 3 4 5 8 10 11 11 12 12 12 11 9 4 1 1 2 2 3 3 3 3 4 4 4 4 4 5 5 5
4 4 4 4 4 3 3 3 3 3 3 3 3 3 3 3 3 3 3 2 2 2 1 1 1 1 1 0 0 0 0 0 0 0 1 1 2 2 3 3 4 5 7 9 10 11 11 12 12 12 12 11 6 2 0 1 2 2 3 3 3 3 4 4 4 4 5 5 6
5 5 5 5 4 4 3 3 3 3 3 3 3 3 3 3 3 3 3 3 2 1 1 1 0 0 0 1 1 1 0 0 0 0 1 2 2 3 3 4 4 5 7 9 10 11 11 12 12 12 12 13 9 5 1 1 2 2 3 3 3 3 4 4 4 5 5 5 6
5 5 5 6 5 4 4 3 3 3 3 3 3 3 4 4 3 3 2 2 1 1 1 1 1 0 0 0 0 1 1 0 0 1 1 2 3 4 4 4 5 5 7 9 10 11 12 12 12 13 13 13 10 6 3 2 2 3 3 3 4 4 4 4 5 5 6 6 6
5 5 6 6 5 4 4 3 3 3 3 3 4 4 4 4 3 2 1 1 1 1 1 1 0 0 0 0 1 1 1 1 1 1 1 2 3 4 4 5 5 5 7 9 10 11 12 12 13 13 13 14 10 6 3 2 2 3 3 4 4 5 5 4 5 5 6 7 7
5 5 6 6 6 5 4 3 3 3 3 4 4 4 3 3 2 1 1 1 1 1 1 1 1 1 1 1 1 1 1 1 1 2 2 2 3 3 4 4 4 5 7 9 10 12 12 13 13 13 14 14 9 5 3 2 2 2 3 3 4 5 5 5 5 6 7 7 7
5 6 6 6 5 5 4 3 3 4 4 4 4 3 3 2 2 1 1 1 1 1 1 1 1 1 1 0 1 1 1 1 1 2 2 2 2 3 4 4 3 5 7 9 11 12 13 13 13 14 14 13 8 4 2 2 2 3 3 4 4 5 5 5 6 6 7 7 6
6 6 6 5 5 5 4 4 4 4 4 4 4 3 3 2 2 2 2 2 2 1 1 0 0 0 1 1 1 1 2 2 2 2 2 2 2 3 4 4 4 6 8 10 11 12 13 13 14 14 13 11 6 3 2 3 3 3 4 4 5 5 5 6 6 6 6 6 7
6 7 6 6 5 5 5 5 4 4 5 5 5 4 3 2 2 1 1 2 2 2 1 1 1 1 1 1 1 2 2 2 2 2 2 2 2 3 3 4 5 7 9 10 11 12 13 13 14 14 12 9 4 2 2 3 3 3 4 4 5 6 6 6 6 6 6 6 7
7 7 7 6 6 5 5 5 5 5 6 6 5 5 4 3 2 1 2 2 2 2 1 1 1 2 2 1 1 1 1 1 2 2 3 2 2 3 3 4 5 7 8 10 11 12 13 13 13 13 11 7 3 2 2 3 3 3 4 5 6 6 7 6 6 6 6 7 7
6 7 7 7 6 6 6 5 6 6 7 6 5 4 3 2 2 2 2 3 2 2 2 2 2 2 1 1 1 1 1 2 2 2 3 3 3 3 3 5 6 7 8 10 11 12 13 13 13 13 11 7 5 3 3 3 3 3 4 5 6 6 6 5 5 5 6 7 9
7 7 7 7 7 6 6 6 7 7 7 6 5 3 3 2 2 2 3 3 2 2 2 2 2 1 1 1 1 1 2 2 2 2 3 3 3 3 4 5 6 7 8 10 11 12 13 13 13 13 11 8 6 4 3 3 4 5 5 5 5 6 6 5 5 5 5 7 10
7 7 7 7 7 7 7 7 7 7 6 5 5 4 3 2 2 2 2 2 1 1 1 1 1 1 1 1 1 1 2 2 2 2 2 3 4 5 5 5 6 7 8 10 11 12 13 13 13 13 11 8 6 4 3 3 5 5 5 4 5 5 6 5 4 4 5 6 8
7 7 7 6 6 7 7 7 7 6 5 5 4 3 3 2 2 2 2 2 1 1 1 1 1 1 0 0 0 1 2 3 2 2 2 3 4 5 5 5 6 6 7 9 10 12 12 13 13 12 11 8 6 4 4 4 5 5 5 5 5 5 5 5 5 4 4 5 5
Wind_Direction
111 114 116 116 114 111 108 106 106 106 107 112 119 122 123 123 151 189 209 205 177 158 146 135 132 137 144 153 141 128 117 110 107 106 106 104 105 102 97 88 83 85 90 96 103 108 113 115 111 107 100 97 101 104 110 125 160 179 188 197 197 200 208 221 220 213 210 213 219
118 118 117 116 114 111 109 109 109 109 110 113 117 118 121 136 171 191 198 190 168 151 142 136 140 145 148 148 132 121 115 112 112 109 105 99 93 87 83 81 80 83 89 98 103 106 108 109 113 113 110 108 118 128 141 159 190 200 202 198 195 202 216 232 232 227 220 218 214
118 117 116 115 115 114 113 114 116 118 119 120 121 124 136 163 184 189 186 173 159 150 145 144 149 149 145 137 121 113 112 116 116 111 105 98 87 79 78 84 86 86 84 86 84 83 83 86 97 109 120 132 153 158 160 171 203 219 220 200 192 206 220 234 233 228 222 226 216
113 114 114 114 114 115 117 120 123 125 126 127 129 139 159 182 188 183 172 161 155 150 148 149 151 147 140 130 119 113 111 114 112 108 101 95 85 80 81 91 91 86 79 73 72 71 69 63 65 81 109 154 182 178 168 174 206 224 238 222 221 228 233 241 236 228 229 237 226
109 110 111 111 113 115 117 121 126 129 130 133 140 155 172 184 182 172 163 155 153 152 150 149 145 141 133 124 118 112 106 101 100 99 97 96 92 89 88 84 82 79 74 67 66 69 69 69 71 77 84 216 240 224 156 188 218 226 226 225 229 236 243 250 243 235 240 248 239
110 107 106 107 111 113 115 121 128 131 135 142 153 163 173 178 173 165 157 151 149 149 149 146 140 134 128 120 114 107 99 89 86 92 98 102 99 91 82 75 71 68 67 64 67 71 79 105 131 150 162 190 200 165 216 246 246 241 232 221 218 230 244 254 253 254 261 267 265
112 110 110 112 115 118 122 127 132 135 140 148 159 166 170 169 163 157 150 145 146 148 149 144 138 135 132 124 114 107 103 99 95 95 97 99 89 79 71 67 65 64 64 66 77 88 110 184 176 177 182 188 186 178 190 238 250 256 258 254 237 244 262 273 275 274 275 278 279
111 114 117 121 124 127 130 134 137 140 145 153 161 164 165 160 153 149 146 144 146 148 146 138 136 134 131 124 117 114 113 113 105 95 87 86 82 78 72 70 72 72 71 73 95 125 152 196 197 189 188 195 196 184 186 211 237 256 271 282 287 288 290 294 285 280 279 282 284
113 117 121 125 128 131 134 137 139 142 147 153 158 159 157 152 148 146 145 145 145 143 137 130 132 129 124 118 117 118 116 111 102 92 83 83 88 91 92 93 97 101 104 113 141 169 182 199 187 188 194 214 214 195 187 195 225 251 271 286 292 292 288 277 273 271 272 276 282
118 121 123 125 127 129 131 132 136 140 144 148 151 151 150 147 146 144 144 142 136 130 128 134 137 133 125 118 116 112 105 97 96 95 94 93 101 111 122 129 132 133 137 147 163 185 196 201 188 185 193 215 224 210 194 197 230 254 269 283 293 296 293 280 264 259 265 272 281
120 121 123 123 125 126 126 128 133 137 140 142 144 144 143 142 141 139 137 132 127 126 130 141 143 135 126 115 108 102 96 91 98 107 112 116 118 129 140 150 153 158 161 163 178 198 207 207 203 200 201 201 217 216 207 198 230 252 265 275 287 293 293 288 275 264 267 277 284
117 118 119 120 123 125 127 129 133 136 138 138 140 139 137 135 136 136 135 131 128 129 132 141 132 122 115 109 104 101 100 105 117 128 134 138 145 155 164 172 173 179 179 179 188 204 214 208 225 239 243 223 232 232 223 214 234 254 264 272 277 283 287 290 286 281 280 283 285
116 117 118 120 124 126 129 131 134 136 137 138 138 136 133 130 135 138 138 135 131 129 126 112 93 95 102 110 114 118 123 131 143 147 149 151 164 172 179 186 188 188 186 181 184 200 211 203 229 259 271 266 261 249 236 229 243 258 269 276 278 282 285 289 291 291 286 280 282
116 118 121 125 128 129 131 132 134 136 137 138 137 134 131 130 137 141 139 134 127 124 119 103 88 85 93 113 125 133 140 146 153 156 157 160 170 181 187 194 194 194 188 176 178 196 211 219 227 247 265 274 269 258 243 235 246 256 266 274 279 282 286 289 291 290 283 277 280
118 122 126 129 131 131 132 134 136 137 137 138 137 134 132 131 136 136 130 121 119 118 117 112 105 100 99 111 126 135 143 150 159 161 163 165 179 189 198 203 202 196 191 179 184 198 216 231 239 246 256 267 269 263 252 241 247 253 260 267 273 278 283 287 289 286 280 276 279
122 126 129 131 132 132 133 136 137 138 139 139 139 136 132 131 130 125 121 118 118 118 118 121 122 121 120 126 130 140 149 157 165 167 172 179 188 198 204 211 206 201 198 200 206 214 224 236 243 248 253 261 266 265 260 252 252 255 259 263 267 272 277 282 284 281 276 271 274
126 129 132 132 133 134 136 138 140 141 142 142 141 137 131 126 122 121 123 126 129 130 129 129 130 133 136 140 147 157 164 165 176 183 190 193 200 206 211 216 214 214 218 238 249 247 244 242 243 244 249 255 262 264 264 261 261 262 263 265 267 269 272 275 276 275 272 267 268
129 131 134 135 136 138 141 144 145 145 144 143 139 132 123 118 119 121 126 133 139 138 136 134 135 139 144 150 166 181 184 179 191 201 209 213 214 218 225 231 231 233 240 252 264 266 266 260 252 248 248 252 257 261 264 265 266 267 267 268 268 268 268 268 267 266 264 260 263
133 136 138 140 142 144 146 147 146 144 140 136 129 121 118 120 127 130 134 140 144 140 138 137 140 144 148 151 169 188 200 188 201 210 216 219 225 232 240 245 245 240 242 251 261 268 271 270 263 257 254 255 259 262 263 264 266 267 268 269 268 266 263 261 258 255 253 253 259
139 142 144 145 145 145 144 143 139 135 131 124 122 123 126 135 141 141 141 143 144 139 137 139 142 145 150 157 174 193 209 201 206 215 220 218 226 236 246 252 251 249 248 253 261 267 269 270 266 262 259 260 264 266 267 266 266 267 268 268 265 261 258 256 254 251 249 249 254
142 143 142 141 139 137 134 129 126 124 123 123 127 132 137 143 146 144 141 140 139 137 137 139 143 150 158 172 183 194 202 205 211 223 230 228 233 244 255 263 262 260 259 259 263 266 268 269 267 265 263 263 265 267 268 269 269 268 267 264 260 256 255 255 255 252 250 250 252
139 135 130 127 128 128 125 118 118 121 125 129 134 137 139 140 138 133 129 128 131 134 136 141 148 157 168 181 183 187 192 197 212 225 236 239 244 252 260 265 265 266 268 269 269 269 269 268 266 263 262 262 264 266 267 268 270 271 269 264 260 258 258 258 255 253 253 254 255
131 123 118 115 119 123 123 120 123 127 130 133 135 136 134 133 127 122 119 120 126 130 134 141 153 165 174 181 179 184 194 211 216 218 222 230 240 247 253 258 260 268 275 279 275 271 267 264 260 257 255 257 261 264 266 266 269 270 269 265 263 262 260 257 253 252 253 256 256
128 125 123 117 121 125 129 131 133 135 135 134 135 134 132 130 128 125 123 123 122 124 130 146 156 165 173 169 169 185 205 231 246 242 230 226 241 250 257 258 265 274 280 279 272 267 266 266 263 257 252 251 257 262 265 266 266 264 260 258 258 259 259 257 253 252 251 252 253
136 134 132 130 134 135 137 138 138 136 134 131 132 132 133 134 136 136 134 131 127 128 134 153 170 178 173 166 169 181 199 230 288 320 326 318 314 301 290 286 287 288 284 277 277 280 285 293 296 291 278 266 265 267 269 266 258 250 245 244 244 247 251 254 251 249 249 251 251
144 141 141 143 141 139 136 135 132 129 127 126 130 134 137 139 139 139 138 138 138 142 155 172 187 185 181 171 175 181 186 195 232 318 334 334 331 326 319 313 309 299 288 283 289 294 300 305 307 307 303 294 287 284 279 261 233 226 227 230 230 234 240 249 250 250 250 251 251
151 150 148 145 138 134 131 127 123 123 126 132 138 140 142 142 139 139 140 141 146 157 172 187 196 189 179 170 175 177 179 178 188 250 310 322 323 321 318 316 313 300 290 290 297 302 306 309 308 307 306 303 304 301 278 217 203 205 211 214 219 224 231 243 251 256 259 260 260
160 156 149 142 137 133 128 124 127 132 138 143 145 145 143 140 140 141 143 147 155 168 184 187 189 187 184 178 168 159 150 155 172 246 277 291 298 301 304 308 306 299 296 298 304 307 310 311 309 309 310 311 322 345 159 199 202 203 205 210 215 222 229 242 251 259 264 269 272
163 157 153 151 148 143 137 139 143 145 145 145 145 144 143 142 142 145 149 156 169 179 183 172 178 182 188 164 102 75 75 84 317 285 285 288 286 287 291 298 299 299 301 304 308 310 311 311 311 312 314 317 324 336 155 221 224 220 217 216 219 225 233 243 252 259 265 272 277
164 162 162 163 159 155 153 154 149 144 141 142 145 147 147 147 149 154 160 168 177 175 157 128 132 114 72 39 14 8 18 61 152 261 280 289 294 297 301 305 304 302 303 306 308 310 311 313 314 316 318 318 321 324 323 290 261 252 246 240 235 236 240 247 252 259 265 274 280
168 168 169 168 166 163 160 151 141 136 138 145 152 154 155 157 162 167 171 173 166 137 97 81 68 50 33 5 341 327 321 315 236 242 261 282 299 304 307 306 302 300 300 304 308 310 313 315 316 318 318 317 318 321 329 323 291 276 267 259 250 246 246 250 255 261 267 275 281
171 172 172 171 171 165 155 141 137 138 142 151 158 161 163 165 168 170 170 164 125 107 101 96 94 236 245 239 249 263 274 274 258 253 262 277 294 300 301 301 298 297 299 305 309 312 314 316 318 318 317 315 317 323 336 328 303 288 277 267 259 254 253 256 262 268 272 277 281
171 172 173 174 171 163 151 141 140 143 148 157 163 166 166 168 166 169 173 169 138 141 150 172 197 216 230 235 258 272 273 269 276 284 291 296 295 295 296 298 296 297 302 307 311 314 316 317 317 316 315 314 318 327 338 325 309 296 283 269 263 259 257 257 263 269 274 278 282
171 172 174 174 168 160 151 146 145 148 155 164 170 171 170 168 177 188 188 171 151 149 158 175 199 225 244 258 274 279 281 285 290 292 291 291 289 291 293 296 294 299 304 310 313 315 316 317 317 315 314 315 319 328 339 324 310 296 283 273 266 260 256 255 259 265 271 276 280
171 172 173 174 167 160 155 152 152 156 164 175 181 182 181 179 189 193 184 162 142 134 134 156 196 253 259 248 248 256 265 280 284 280 275 276 284 293 297 298 297 301 306 310 314 316 316 316 316 315 314 316 321 329 329 315 303 292 281 273 268 263 258 256 259 263 268 273 276
174 173 173 172 168 165 161 159 160 167 176 186 190 192 192 193 193 191 177 158 144 140 148 167 190 215 220 216 221 227 240 259 275 281 282 282 291 298 301 301 300 303 306 310 313 314 315 315 315 314 314 316 321 324 312 302 295 285 277 272 269 265 262 261 263 267 271 275 276
178 176 173 171 170 169 167 165 168 178 187 194 195 195 194 192 186 179 171 161 152 159 171 179 193 206 212 211 216 225 234 248 272 285 292 295 297 297 297 298 298 299 302 306 310 312 314 314 314 314 313 313 314 308 298 292 286 279 274 271 268 266 265 267 270 273 276 276 275
181 179 175 172 172 172 170 171 178 187 194 198 196 193 186 177 172 177 179 171 167 173 182 184 194 202 210 220 237 245 247 246 260 276 289 296 293 288 287 291 291 293 296 301 306 310 312 313 313 313 312 310 311 307 298 289 280 276 275 273 272 271 271 273 276 277 275 273 275
182 181 178 175 173 173 173 178 188 194 197 196 193 185 177 169 172 179 178 170 166 169 178 181 183 191 209 241 269 275 268 250 250 263 278 286 283 280 278 280 283 287 291 297 303 307 310 312 311 311 311 310 311 307 294 278 274 274 274 275 278 278 278 276 274 273 274 273 278
180 181 181 178 176 175 177 186 194 197 197 192 189 185 179 172 167 162 158 146 144 154 164 164 159 165 205 261 289 300 295 281 258 258 269 280 282 284 285 285 286 288 291 296 301 305 308 310 310 311 311 309 307 299 282 270 272 271 271 269 275 280 282 280 275 273 274 276 281
176 179 181 182 179 179 182 190 196 196 193 189 186 180 165 150 138 135 136 133 140 148 150 139 134 140 215 273 299 304 302 298 289 280 278 284 287 291 294 295 293 292 292 295 299 303 306 308 309 310 309 306 303 295 283 277 276 272 267 264 272 278 283 286 284 280 278 278 281